SCP
0 0 0 0 0 0 0 0 0 0 0 0 0 0 0 0 0 0 0 0 0 0 0 0 0 0 0 0 0 0 0 0 0 0 0 0 0 0 0 0 0 0 0 0
0 0 0 0 0 0 0 0 0 0 0 0 0 0 0 0 0 0 0 0 0 0 0 0 0 0 0 0 0 0 0 0 0 0 0 0 0 0 0 0 0 0 0 0
0 0 0 0 0 0 0 0 0 0 0 0 0 0 0 0 0 0 0 0 0 0 0 0 0 0 0 0 0 0 0 0 0 0 0 0 0 0 0 0 0 0 0 0
0 0 0 0 0 0 0 0 0 0 0 0 0 0 0 0 0 0 0 0 0 0 0 0 0 0 0 0 0 0 0 0 0 0 0 0 0 0 0 0 0 0 0 0
0 0 0 0 0 0 0 0 0 0 0 0 0 0 0 0 0 0 0 0 0 0 0 0 0 0 0 0 0 0 0 0 0 0 0 0 0 0 0 0 0 0 0 0
0 0 0 0 0 0 0 0 0 0 0 0 0 0 0 0 0 0 0 0 0 0 0 0 0 0 0 0 0 0 0 0 0 0 0 0 0 0 0 0 0 0 0 0
0 0 0 0 0 0 0 0 0 0 0 0 0 0 0 0 0 0 0 0 0 0 0 0 0 0 0 0 0 0 0 0 0 0 0 0 0 0 0 0 0 0 0 0
0 0 0 0 0 0 0 0 0 0 0 0 0 0 0 0 0 0 0 0 0 0 0 0 0 0 0 0 0 0 0 0 0 0 0 0 0 0 0 0 0 0 0 0
0 0 0 0 0 0 0 0 0 0 0 0 0 0 0 0 0 0 0 0 0 0 0 0 0 0 0 0 0 1 1 1 1 1 0 0 0 0 0 0 0 0 0 0
0 0 0 0 0 0 0 0 0 0 0 0 0 0 0 0 0 0 0 0 0 0 0 0 0 0 0 0 1 1 1 1 1 1 1 0 0 0 0 0 0 0 0 0
0 0 0 0 0 0 0 0 0 0 0 0 0 0 0 0 0 0 0 0 0 0 0 0 0 0 0 0 1 1 1 1 1 1 1 0 0 0 0 0 0 0 0 0
0 0 0 0 0 0 0 0 0 0 0 0 0 0 0 0 0 0 0 0 0 1 1 0 0 0 0 1 1 1 1 1 1 1 1 1 1 1 0 0 0 0 0 0
0 0 0 0 0 0 0 0 0 0 0 0 0 0 0 0 0 0 1 1 1 1 1 0 0 0 0 1 1 1 1 1 1 1 1 1 1 1 1 0 0 0 0 0
0 0 0 0 0 0 0 0 0 0 0 0 0 0 0 0 1 1 1 1 1 1 1 1 1 1 1 1 1 1 1 1 1 1 1 1 1 1 1 1 0 0 0 0
0 0 0 0 0 0 0 0 0 0 0 0 0 0 0 1 1 1 1 1 1 1 1 1 1 1 1 1 1 1 1 1 1 1 1 1 1 1 1 1 0 0 0 0
0 0 0 0 0 0 0 0 0 0 0 0 0 0 1 1 1 1 1 1 1 1 1 1 1 1 1 1 1 1 1 1 1 1 1 1 1 1 1 1 0 0 0 0
0 0 0 0 0 0 0 0 0 0 0 0 0 1 1 1 2 2 1 1 1 1 1 1 1 1 1 1 1 1 2 2 2 1 1 1 1 1 1 1 1 1 0 0
0 0 0 0 0 0 0 0 0 0 0 0 1 1 1 2 2 2 2 2 2 1 1 1 1 2 2 2 2 2 2 2 2 2 1 1 1 1 1 1 1 1 1 1
0 0 0 0 0 0 0 0 0 0 0 0 1 1 2 2 2 2 2 2 2 2 1 2 2 2 2 2 2 2 2 2 2 2 1 1 1 1 1 1 1 1 1 1
0 0 0 0 0 0 0 0 0 0 0 1 1 1 2 2 2 2 2 2 2 2 2 2 2 3 3 3 3 2 2 2 2 2 1 1 1 1 1 1 1 1 1 1
0 0 0 0 0 0 0 0 0 0 0 1 1 2 2 2 2 2 2 2 2 2 2 2 2 3 3 3 3 3 2 2 2 2 1 1 1 1 1 1 1 1 1 1
0 0 0 0 0 0 0 0 0 0 0 1 1 2 2 2 2 2 2 2 2 2 2 2 2 2 3 3 3 3 2 2 2 1 1 1 1 1 1 1 1 1 1 1
0 0 0 0 0 0 0 0 0 0 1 1 1 2 2 2 2 2 2 2 2 2 2 2 2 2 2 2 3 2 2 2 1 1 1 1 1 1 1 1 1 1 1 1
0 0 0 0 1 1 1 1 1 1 1 1 1 2 2 2 2 2 2 2 2 2 2 2 2 2 2 2 2 2 1 1 1 1 1 1 1 1 1 1 1 1 1 1
0 0 0 0 1 1 1 1 1 1 1 1 1 1 1 1 1 1 1 1 1 1 1 1 1 1 1 1 1 1 1 1 1 1 1 1 1 1 1 1 1 1 1 1
0 0 0 0 0 1 1 1 1 1 1 1 1 1 1 1 1 1 1 1 1 1 1 1 1 1 1 1 1 1 1 1 1 1 0 1 0 0 0 0 0 0 1 1
Wind_Speed
2 3 3 8 7 8 6 4 4 4 6 7 9 11 13 12 10 10 9 9 9 8 8 9 9 9 8 6 6 5 5 3 3 2 2 1 1 0 0 1 2 2 2 3
4 4 10 7 4 4 3 3 3 1 4 5 7 7 9 11 13 13 12 11 10 8 7 8 8 8 8 7 6 6 5 4 4 2 2 2 2 1 1 0 1 2 3 2
6 9 6 4 5 4 3 6 7 5 2 3 6 2 5 6 6 7 10 10 11 12 12 10 9 8 8 7 7 7 6 5 4 3 2 2 2 2 2 1 0 1 2 2
6 8 5 5 5 5 4 7 8 8 6 3 5 4 6 8 7 9 10 10 11 11 11 10 10 9 9 8 7 6 6 5 4 4 3 3 2 1 1 1 1 0 1 1
6 5 4 5 7 5 6 4 5 6 5 3 1 3 5 5 9 12 12 13 13 12 13 13 12 11 10 9 7 6 6 5 4 4 4 3 2 1 1 0 1 0 0 1
7 5 5 6 5 4 3 6 7 6 5 1 4 5 5 8 13 13 12 14 14 14 13 12 10 9 7 7 7 7 6 5 4 4 4 4 3 2 2 1 1 0 0 0
5 7 4 2 1 2 5 7 5 4 3 5 3 4 9 11 12 14 15 15 14 13 13 12 11 10 9 8 7 6 7 5 5 5 4 4 4 3 3 2 2 1 0 0
2 6 5 3 6 5 4 10 9 6 5 4 1 4 8 7 9 9 10 12 13 12 12 13 13 12 11 10 9 8 8 6 6 5 4 3 3 3 2 2 2 2 1 1
5 7 6 4 3 7 4 4 9 8 3 1 3 4 6 1 5 7 7 9 11 12 13 13 12 12 11 11 10 9 9 7 6 6 5 3 3 3 2 2 2 1 1 1
6 4 6 4 2 1 6 7 6 6 5 1 3 3 5 5 7 8 9 11 10 11 12 12 12 12 11 10 9 9 8 8 6 6 5 5 3 3 3 2 2 2 1 1
5 4 5 2 2 4 1 3 6 5 6 7 3 7 7 10 10 11 11 11 11 12 13 12 11 11 10 9 9 8 8 7 6 6 5 4 4 3 3 2 2 2 2 2
3 6 3 6 6 5 6 6 8 5 3 5 5 8 6 7 8 9 10 10 10 10 11 11 11 10 9 9 9 9 8 8 7 7 5 5 4 4 3 3 2 2 2 2
4 6 1 6 7 4 0 3 6 7 5 4 4 7 3 4 5 7 10 9 9 9 9 8 8 9 10 10 9 9 8 8 7 7 6 5 5 4 4 3 2 2 2 2
5 5 7 8 7 3 2 2 3 7 5 4 6 5 3 3 6 6 8 8 9 9 9 8 7 7 8 9 9 9 8 7 7 7 7 6 5 5 4 3 3 2 3 3
6 3 3 5 4 2 2 3 2 4 8 8 8 8 8 7 8 9 9 8 9 9 10 10 9 7 7 8 8 8 8 8 8 8 7 6 5 5 4 4 3 3 3 3
4 3 1 2 1 1 1 3 2 2 4 6 6 4 4 3 5 6 8 10 10 9 10 10 9 8 8 8 8 9 8 8 8 8 6 5 6 5 5 4 4 3 3 2
2 4 3 2 2 2 3 4 2 2 2 6 7 7 5 6 7 8 8 9 10 10 9 9 9 9 8 8 9 9 8 8 8 7 6 6 6 6 5 5 4 4 3 3
4 3 3 1 2 4 8 4 2 3 2 3 5 6 9 9 7 5 6 9 8 9 9 7 7 7 6 6 7 8 8 8 8 7 6 6 6 6 5 5 5 4 3 3
6 6 3 3 2 4 6 3 0 3 1 2 6 7 7 8 9 5 2 6 7 8 8 7 7 7 7 8 8 9 8 7 7 6 6 6 6 6 6 5 5 4 4 3
4 6 5 3 3 5 7 4 1 5 1 2 6 8 8 8 6 3 2 5 6 7 6 6 7 7 8 7 9 9 8 7 7 6 5 5 5 6 6 5 4 3 4 4
3 3 3 3 3 5 6 4 2 4 6 3 5 7 7 5 6 7 6 6 7 7 7 7 8 8 7 8 9 9 7 7 6 6 6 5 5 5 5 4 4 4 4 4
4 3 3 4 3 6 5 2 3 5 3 4 5 5 6 5 7 8 8 7 8 7 7 8 9 7 6 8 9 9 6 5 6 6 6 5 4 4 4 5 4 4 4 4
3 5 5 6 6 5 2 1 2 2 3 3 4 4 8 8 8 8 8 8 7 7 6 6 8 8 6 7 8 9 6 6 7 7 6 4 4 4 4 4 4 4 4 3
4 1 2 0 2 2 2 3 3 3 4 3 4 6 7 8 9 8 7 7 7 6 6 6 7 7 6 6 7 7 7 7 7 7 6 4 4 4 3 3 3 3 3 3
3 2 1 1 2 3 4 3 3 4 6 6 4 5 6 9 8 8 7 6 6 5 5 5 6 6 6 6 6 6 6 8 8 6 5 5 4 4 3 3 2 2 2 4
2 3 3 4 4 2 3 2 2 4 4 5 4 4 5 7 8 7 7 6 6 6 5 5 5 5 5 6 6 6 6 7 8 6 5 4 3 3 3 4 3 6 3 3
Wind_Direction
331 80 225 225 205 197 196 169 185 195 168 149 159 159 169 172 172 175 171 170 168 171 171 163 162 158 154 152 151 149 146 154 134 117 114 100 87 69 78 138 146 147 139 123
13 259 235 227 230 222 199 159 171 171 168 145 154 159 170 177 182 181 176 174 170 167 167 168 164 159 160 163 163 158 160 160 153 146 149 152 152 158 162 119 113 136 134 137
212 242 244 236 247 231 222 178 178 171 123 84 112 139 180 193 185 180 181 180 175 173 174 173 168 166 164 168 171 170 170 164 163 154 124 100 68 48 49 47 68 137 149 156
241 246 246 240 236 188 228 204 171 157 132 180 155 179 225 191 192 193 189 181 182 181 178 176 170 169 174 176 171 166 165 163 165 153 141 142 137 138 195 186 177 188 158 148
250 244 236 234 230 195 215 197 152 150 136 121 130 135 257 173 198 206 195 189 185 184 181 180 177 175 175 172 168 167 162 165 166 159 156 149 147 162 173 128 121 111 321 170
251 258 217 216 234 202 160 65 51 58 73 84 215 155 238 204 205 200 195 188 186 184 181 178 174 166 164 164 166 168 165 170 170 166 159 157 160 165 144 139 146 174 297 288
305 298 270 205 245 323 103 90 47 15 23 251 234 173 231 217 203 192 189 187 187 184 176 172 168 164 165 165 168 172 172 177 176 168 166 163 166 161 162 167 171 157 84 356
217 278 265 219 181 184 171 138 153 180 204 258 292 220 252 225 199 189 180 178 179 179 175 173 172 169 169 169 173 174 178 180 178 171 167 165 156 147 161 168 155 160 177 214
185 248 273 254 194 158 158 166 163 138 155 132 273 282 318 120 157 170 168 163 174 179 172 171 169 168 169 171 175 174 175 173 172 169 163 162 159 148 151 152 152 167 182 173
169 230 276 276 23 16 161 154 100 112 136 211 284 254 223 203 189 173 171 177 178 175 170 170 170 171 173 174 173 170 168 169 168 170 169 164 170 164 161 153 161 172 177 164
161 174 284 350 175 208 157 112 109 118 147 151 216 263 226 198 192 176 177 177 174 168 171 172 172 173 170 165 167 163 163 161 165 170 169 159 163 169 162 158 174 174 168 153
162 131 231 256 247 199 167 167 142 145 204 159 166 260 265 182 183 168 164 159 158 160 163 166 170 166 163 165 167 166 169 169 170 168 165 163 163 161 160 162 166 156 142 135
132 113 97 329 336 354 116 163 141 131 121 143 161 261 299 139 153 160 154 148 146 144 144 149 159 163 166 168 167 168 171 172 167 162 161 163 163 158 170 168 151 135 128 113
120 117 159 195 218 234 264 253 150 124 140 183 203 224 277 168 153 158 153 148 146 145 143 144 153 163 164 165 166 167 170 167 161 158 159 162 173 168 163 152 144 139 127 113
94 133 185 207 210 183 237 252 212 165 170 171 202 196 212 195 174 164 152 145 143 149 152 156 156 157 159 162 163 165 166 164 160 157 160 168 164 153 147 144 149 145 133 135
68 118 81 291 294 66 320 293 243 199 172 169 164 215 226 151 129 136 147 148 149 152 155 154 153 156 159 162 163 161 161 162 156 155 161 158 148 144 146 146 141 135 135 133
65 100 94 267 310 48 284 250 211 211 182 160 175 208 163 131 137 154 157 151 149 150 151 151 157 163 165 164 159 159 159 153 149 152 155 154 150 148 152 149 136 136 137 120
135 101 124 157 72 211 241 249 196 172 207 161 168 173 161 160 152 148 148 143 143 145 145 152 158 154 152 151 146 146 142 143 145 148 150 150 147 146 145 139 137 135 126 121
148 136 119 121 155 263 290 300 148 144 292 162 149 144 135 122 85 55 90 138 145 148 145 147 150 142 138 140 140 132 131 136 138 142 146 148 146 145 142 143 146 144 133 129
92 112 118 126 152 215 246 274 272 99 327 289 135 141 137 117 118 199 174 124 122 124 128 126 123 123 129 137 135 129 131 131 136 139 137 137 136 140 144 148 144 134 136 135
46 63 126 153 196 250 255 279 61 140 217 222 148 140 139 146 170 168 145 127 125 121 117 112 113 120 132 133 126 125 128 136 136 123 114 115 122 131 136 132 125 124 129 124
163 148 177 152 179 250 289 31 144 208 207 159 138 139 128 126 122 126 126 121 115 114 115 115 114 116 121 126 126 127 132 130 121 117 114 110 112 125 124 125 127 128 131 130
175 183 184 183 206 238 279 177 210 158 137 131 123 125 131 126 124 125 122 121 119 119 118 115 114 115 115 122 128 130 133 128 122 114 114 111 103 99 115 126 133 131 134 140
307 5 99 76 272 309 354 15 27 63 92 95 111 114 114 124 128 124 123 123 121 120 123 120 120 122 125 123 124 133 138 132 125 123 123 120 111 97 90 103 126 137 146 151
269 348 69 270 297 12 6 5 40 58 75 79 77 94 117 127 129 128 129 128 128 126 130 131 135 137 138 132 129 135 139 135 132 131 128 124 120 118 103 90 88 138 170 182
237 192 174 220 235 194 255 295 45 73 76 86 84 84 110 132 135 128 131 134 134 136 136 133 136 140 143 137 137 145 146 142 140 140 140 136 131 125 122 116 77 44 65 107